Change the Weather History Date:

Monday, February 10, 2014

  Actual Average Record
Temperature  
Mean Temperature 54 °F 48 °F  
Max Temperature 61 °F 59 °F 72 °F (2006)
Min Temperature 47 °F 38 °F 25 °F (1929)
Degree Days  
Heating Degree Days 11    
Month to date heating degree days 171  
Since 1 July heating degree days 2003  
Cooling Degree Days 0    
Month to date cooling degree days 0  
Year to date cooling degree days 0  
Growing Degree Days 4 (Base 50)    
Moisture  
Dew Point 52 °F    
Average Humidity 89    
Maximum Humidity 100    
Minimum Humidity 78    
Precipitation  
Precipitation T in - 3.00 in (1919)
Month to date precipitation 3.35  
Year to date precipitation 3.43  
Since 1 July precipitation 5.63  
Sea Level Pressure  
Sea Level Pressure 30.19 in    
Wind  
Wind Speed 6 mph (SW)    
Max Wind Speed 13 mph    
Max Gust Speed 15 mph    
Visibility 8 miles    
Events Fog , Rain    
T = Trace of Precipitation, MM = Missing Value Source: NWS Daily Summary

Daily Weather History Graph

Daily Weather History Graph

Search for Another Location

Airport or City:

Trip Planner

Search our weather history database for the weather conditions in past years. The results will help you decide how hot, cold, wet, or windy it might be!

Date:

Astronomy

Feb. 10, 2014 Rise Set
Actual Time 7:05 AM PST 5:42 PM PST
Civil Twilight 6:37 AM PST 6:09 PM PST
Nautical Twilight 6:06 AM PST 6:40 PM PST
Astronomical Twilight 5:35 AM PST 7:11 PM PST
Moon 2:17 PM PST (2/10) 4:00 AM PST (2/10)
Length of Visible Light 11h 31m
Length of Day
10h 37m
Waxing Gibbous, 85% of the Moon is Illuminated
Feb 10
Waxing Gibbous
Feb 14
Full
Feb 22
Last Quarter
Mar 1
New
Mar 8
First Quarter

Hourly Weather History & Observations

Time (PST) Temp. Dew Point Humidity Pressure Visibility Wind Dir Wind Speed Gust Speed Precip Events Conditions
12:06 AM 54.0 °F 54.0 °F 100% 30.09 in 10.0 mi SW 9.2 mph - N/A   Overcast
12:14 AM 55.0 °F 55.0 °F 100% 30.10 in 10.0 mi SW 11.5 mph - N/A   Overcast
12:54 AM 54.0 °F 54.0 °F 100% 30.09 in 8.0 mi South 4.6 mph - N/A   Overcast
1:17 AM 54.0 °F 54.0 °F 100% 30.12 in 2.5 mi SSW 4.6 mph - 0.00 in Rain Light Rain
1:32 AM 54.0 °F 54.0 °F 100% 30.12 in 4.0 mi SSW 5.8 mph - 0.00 in   Overcast
1:54 AM 54.0 °F 54.0 °F 100% 30.10 in 7.0 mi South 6.9 mph - 0.00 in   Overcast
2:54 AM 54.0 °F 54.0 °F 100% 30.11 in 6.0 mi SW 9.2 mph - N/A   Overcast
3:17 AM 54.0 °F 54.0 °F 100% 30.14 in 4.0 mi SW 5.8 mph - N/A   Overcast
3:39 AM 54.0 °F 54.0 °F 100% 30.14 in 10.0 mi SW 9.2 mph - N/A   Overcast
3:54 AM 53.1 °F 53.1 °F 100% 30.12 in 10.0 mi SW 11.5 mph - N/A   Overcast
4:24 AM 54.0 °F 54.0 °F 100% 30.15 in 10.0 mi WSW 9.2 mph - N/A   Overcast
4:32 AM 54.0 °F 54.0 °F 100% 30.15 in 10.0 mi WSW 8.1 mph - N/A   Overcast
4:54 AM 53.1 °F 53.1 °F 100% 30.13 in 10.0 mi WSW 5.8 mph - N/A   Overcast
5:34 AM 52.0 °F 52.0 °F 100% 30.16 in 10.0 mi WSW 8.1 mph - N/A   Overcast
5:54 AM 52.0 °F 52.0 °F 100% 30.14 in 10.0 mi WSW 6.9 mph - N/A   Mostly Cloudy
6:08 AM 51.1 °F 51.1 °F 100% 30.17 in 10.0 mi SW 6.9 mph - N/A   Scattered Clouds
6:38 AM 50.0 °F 50.0 °F 100% 30.18 in 9.0 mi SSW 3.5 mph - N/A   Mostly Cloudy
6:54 AM 50.0 °F 50.0 °F 100% 30.16 in 10.0 mi SW 4.6 mph - N/A   Scattered Clouds
7:08 AM 48.9 °F 48.9 °F 100% 30.20 in 1.8 mi Calm Calm - N/A   Partly Cloudy
7:29 AM 50.0 °F 50.0 °F 100% 30.21 in 2.5 mi Calm Calm - N/A   Mostly Cloudy
7:36 AM 51.1 °F 51.1 °F 100% 30.21 in 8.0 mi Calm Calm - N/A   Mostly Cloudy
7:50 AM 51.8 °F 51.8 °F 100% 30.22 in 10.0 mi Calm Calm - N/A   Overcast
7:54 AM 52.0 °F 52.0 °F 100% 30.20 in 10.0 mi Calm Calm - N/A   Overcast
8:22 AM 53.1 °F 53.1 °F 100% 30.24 in 10.0 mi Calm Calm - N/A   Overcast
8:54 AM 53.1 °F 53.1 °F 100% 30.22 in 10.0 mi Calm Calm - N/A   Overcast
9:08 AM 55.0 °F 54.0 °F 96% 30.26 in 10.0 mi SW 4.6 mph - N/A   Overcast
9:54 AM 55.0 °F 54.0 °F 96% 30.25 in 10.0 mi SW 4.6 mph - N/A   Overcast
10:54 AM 55.0 °F 53.1 °F 93% 30.26 in 10.0 mi Calm Calm - N/A   Overcast
11:36 AM 57.0 °F 53.1 °F 87% 30.28 in 10.0 mi Calm Calm - N/A   Overcast
11:54 AM 57.9 °F 54.0 °F 87% 30.25 in 10.0 mi North - - N/A   Overcast
12:54 PM 59.0 °F 54.0 °F 83% 30.24 in 10.0 mi SSW 4.6 mph - N/A   Overcast
1:54 PM 59.0 °F 54.0 °F 83% 30.22 in 10.0 mi SW 11.5 mph - N/A   Mostly Cloudy
2:54 PM 61.0 °F 55.0 °F 81% 30.21 in 10.0 mi SW 8.1 mph - N/A   Partly Cloudy
3:54 PM 60.1 °F 54.0 °F 80% 30.20 in 10.0 mi SSW 8.1 mph - N/A   Clear
4:54 PM 57.9 °F 54.0 °F 87% 30.20 in 10.0 mi SSW 9.2 mph - N/A   Mostly Cloudy
5:54 PM 55.0 °F 53.1 °F 93% 30.19 in 10.0 mi SSW 8.1 mph - N/A   Clear
6:54 PM 53.1 °F 52.0 °F 96% 30.20 in 10.0 mi South 6.9 mph - N/A   Clear
7:54 PM 53.1 °F 52.0 °F 96% 30.21 in 10.0 mi South 4.6 mph - N/A   Clear
8:54 PM 51.1 °F 51.1 °F 100% 30.21 in 10.0 mi South 4.6 mph - N/A   Clear
9:27 PM 50.0 °F 50.0 °F 100% 30.22 in 10.0 mi SSW 3.5 mph - N/A   Scattered Clouds
9:54 PM 50.0 °F 50.0 °F 100% 30.19 in 10.0 mi South 4.6 mph - N/A   Partly Cloudy
10:45 PM 50.0 °F 50.0 °F 100% 30.23 in 1.5 mi Calm Calm - N/A   Clear
10:47 PM 50.0 °F 50.0 °F 100% 30.23 in 0.8 mi Calm Calm - N/A   Mist
10:49 PM 50.0 °F 50.0 °F 100% 30.23 in 0.5 mi Calm Calm - N/A Fog Fog
10:54 PM 50.0 °F 50.0 °F 100% 30.20 in 0.2 mi Calm Calm - N/A Fog Fog
11:54 PM 46.9 °F 46.9 °F 100% 30.21 in 0.2 mi Calm Calm - N/A Fog Fog